Flag for U.S.A. Weather past 2 weeks in South Bend, Indiana, U.S.A.

Now
17 °F

Clear.


Feels Like: 9 °F
Forecast: 20 / 35 °F
Wind: 6 mph from Southwest

Location: Michiana Regional Airport

Current Time: Jan 31, 2015 at 2:16:27 AM

Latest Report: Jan 31, 2015 at 1:54 AM


Visibility: 10 mi

Pressure: 30.38 "Hg

Humidity: 76%

Dew point: 11 °F

Location of South BendLocation

Historic Weather in South Bend — Graph

°F

South Bend temperature yesterday

Maximum temperature yesterday: 29 °F (at 12:54 AM)
Minimum temperature yesterday: 18 °F (at 7:54 PM)
Average temperature yesterday: 24 °F

Past Weeks' High & Low Weather Summary

 TemperatureHumidityPressure
High45 °F (Jan 17, 12:54 PM)96% (Jan 21, 6:54 AM)30.52 "Hg (Jan 21, 6:54 AM)
Low8 °F (Jan 26, 6:54 AM)38% (Jan 27, 2:54 PM)29.65 "Hg (Jan 24, 5:01 PM)
Average30 °F75%30.04 "Hg
* Reported Jan 16 12:54 AM — Jan 31 12:54 AM, South Bend, Weather by CustomWeather, © 2014

Note: Actual official high and low records may vary slightly from our data, if they occured in-between our weather recording intervals... More about our weather records

Advertising

South Bend weather history for previous 24 hours

 ConditionsComfort  
Time TempWeatherWind HumidityBarometerVisibility
12:54 AM
Jan 31
16 °FClear.No wind77%30.41 "Hg10 mi
11:54 PM
Jan 30
19 °FClear.3 mph77%30.42 "Hg10 mi
10:54 PM18 °FPassing clouds.5 mph80%30.43 "Hg10 mi
9:54 PM19 °FClear.No wind77%30.45 "Hg10 mi
8:54 PM20 °FClear.No wind74%30.46 "Hg10 mi
7:54 PM18 °FClear.No wind77%30.47 "Hg10 mi
6:54 PM22 °FClear.No wind68%30.47 "Hg10 mi
5:54 PM25 °FOvercast.7 mph63%30.47 "Hg10 mi
5:01 PM26 °FOvercast.8 mph60%30.45 "Hg10 mi
3:54 PM26 °FOvercast.9 mph63%30.49 "Hg10 mi
2:54 PM26 °FOvercast.9 mph69%30.50 "Hg10 mi
1:54 PM26 °FOvercast.8 mph66%30.50 "Hg10 mi
12:54 PM25 °FOvercast.6 mph66%30.52 "Hg10 mi
11:54 AM25 °FOvercast.6 mph63%30.52 "Hg10 mi
10:54 AM25 °FMostly cloudy.7 mph66%30.51 "Hg10 mi
9:54 AM24 °FLight snow. More clouds than sun.15 mph68%30.50 "Hg5 mi
8:57 AM24 °FOvercast.13 mph68%30.45 "Hg7 mi
7:54 AM25 °FOvercast.17 mph60%30.45 "Hg10 mi
6:54 AM24 °FLight snow. Overcast.15 mph71%30.43 "Hg9 mi
5:54 AM24 °FOvercast.14 mph75%30.40 "Hg10 mi
4:54 AM25 °FOvercast.17 mph69%30.38 "Hg10 mi
3:54 AM26 °FOvercast.22 mph63%30.35 "Hg9 mi
2:54 AM27 °FOvercast.25 mph66%30.32 "Hg10 mi
Weather by CustomWeather, © 2014

See weather overviewHow to use our weather pages